www.pogodaiklimat.ru
ПОГОДА на Базе ВВС Clark
Время
(UTC), дата
00 7.10
03 7.10
06 7.10
09 7.10
12 7.10
15 7.10
18 7.10
21 7.10
00 8.10
03 8.10
06 8.10
09 8.10
12 8.10
15 8.10
18 8.10
21 8.10
00 9.10
03 9.10
06 9.10
09 9.10
12 9.10
15 9.10
18 9.10
21 9.10
00 10.10
03 10.10
06 10.10
09 10.10
12 10.10
15 10.10
18 10.10
21 10.10
00 11.10
03 11.10
06 11.10
09 11.10
12 11.10
15 11.10
18 11.10
21 11.10
00 12.10
03 12.10
06 12.10
09 12.10
12 12.10
15 12.10
18 12.10
21 12.10
00 13.10
03 13.10
06 13.10
09 13.10
12 13.10
15 13.10
18 13.10
21 13.10
Ветер
(напр.,м/с)
Видим. Явления Облачность Т
(С)
Тd
(С)
f
(%)
Тe
(С)
Тes
(С)
Комфортность P
(гПа)
Po
(гПа)
Тmin
(С)
Tmax
(С)
R
(мм)
R24
(мм)
S
(см)
С 2 15 км мгла {туман} 5/3 600 м
[Sc diur, vesp Ac trans]
+27.2 +20.5 67 +34 +36 очень
душно
1013.3 995.9 +24.0 4
СВ 6 15 км мгла {туман} 5/3 600 м
[Cu hum Ci fib]
+31.2 +20.9 54 +38 +43 очень
душно
1012.6 995.2
В 2 18 км мгла {туман} 6/4 600 м
[Cu hum Cs]
+33.0 +21.2 50 +41 +48 опасность
перегрева
1010.0 992.7
В 2 20 км мгла {туман} 5/3 600 м
[Cu hum Cs]
+31.8 +21.2 53 +39 +40 очень
душно
1010.1 992.8
З 1 12 км мгла {туман} 9/5 600 м
[Sc diur, vesp Ac As]
+28.4 +21.0 64 +36 +36 очень
душно
1012.3 994.9 +33.0
СЗ 1 12 км мгла {туман} 5/1 600 м
[Cu hum Ci fib]
+26.8 +21.6 73 +34 +34 очень
душно
1012.3 995.0
З 1 12 км мгла {туман} 5/1 600 м
[Cu hum Ci fib]
+25.4 +21.8 80 +33 +33 очень
душно
1011.0 993.7
С 2 15 км мгла {туман} 4/1 600 м
[Cu hum Ci fib]
+25.6 +21.0 76 +32 +32 очень
душно
1010.4 993.1
С 2 15 км мгла {туман} 6/3 600 м
[Cu hum Cs]
+27.6 +19.1 60 +33 +36 очень
душно
1012.4 995.0 +24.8
С 4 18 км мгла {туман} 5/1 600 м
[Cu hum Ci fib]
+31.5 +20.2 51 +38 +48 очень
душно
1011.9 994.6
С 7 18 км мгла {туман} 8/5 600 м
[Cu hum Cs]
+33.4 +21.7 50 +41 +43 опасность
перегрева
1009.4 992.2
ЮВ 3 18 км мгла {туман} 5/3 600 м
[Cu hum Cs]
+32.1 +22.6 57 +42 +42 опасность
перегрева
1009.6 992.3
С 3 15 км мгла {туман} 8/3 600 м
[Cu med, cong Ac trans]
+28.5 +22.7 71 +38 +38 очень
душно
1012.2 994.9 +33.4
С 1 15 км мгла {туман} 9/4 600 м
[Cu med, cong Ac As]
+27.6 +23.4 78 +37 +37 очень
душно
1012.3 995.0
С 4 15 км мгла {туман} 8/3 600 м
[Cu med, cong Ac trans Cs]
+27.1 +22.8 77 +36 +36 очень
душно
1010.3 993.1
З 2 15 км мгла {туман} 6/3 600 м
[Cu hum Cs]
+25.4 +22.1 82 +33 +33 очень
душно
1010.6 993.3
С 3 18 км мгла {туман} 5/1 600 м
[Cu hum Cs]
+28.5 +22.1 68 +37 +40 очень
душно
1011.6 994.3 +25.2
СВ 5 18 км мгла {туман} 8/4 600 м
[Cu hum Cs]
+31.8 +22.2 57 +41 +46 опасность
перегрева
1011.3 994.1
СВ 4 12 км мгла {туман} 9/4 600 м
[Sc diur, vesp Cs]
+32.4 +21.6 53 +41 +45 опасность
перегрева
1008.6 991.4
С 5 12 км гроза без осадков {туман} 9/6 540 м
[Cb cap Ac As]
+27.4 +23.6 80 +37 +38 очень
душно
1009.9 992.5
Ю 2 12 км мгла {туман} 8/1 600 м
[Cu hum Cs]
+27.2 +33.6 100 +43 +43 опасность
перегрева
1011.6 994.2 +32.6
З 1 15 км мгла {туман} 6/1 600 м
[Cu hum Cs]
+26.1 +22.6 81 +34 +34 очень
душно
1011.8 994.5
З 1 15 км мгла {туман} 6/1 600 м
[Cu hum Cs]
+25.2 +22.2 83 +33 +33 очень
душно
1010.3 993.0
З 1 15 км мгла {туман} 1/1 600 м
[Cu hum]
+24.8 +21.2 80 +31 +31 очень
душно
1010.4 993.0
С 2 18 км мгла {туман} 6/1 600 м
[Cu hum Cs]
+28.2 +21.6 67 +36 +39 очень
душно
1012.4 995.0 +24.4
С 3 15 км мгла {туман} 6/1 600 м
[Cu hum Cs]
+31.8 +21.2 53 +39 +51 опасность
солнечного
удара
1011.8 994.5
В 2 15 км мгла {туман} 6/4 600 м
[Cu med, cong Ac trans]
+33.3 +21.0 49 +41 +47 опасность
перегрева
1009.2 992.0
З 1 18 км мгла {туман} 5/3 600 м
[Cu med, cong Cs]
+32.6 +21.0 51 +40 +41 очень
душно
1009.1 991.8
С 5 15 км мгла {туман} 8/5 600 м
[Cu med, cong Cs]
+28.0 +22.6 73 +37 +37 очень
душно
1011.1 993.8 +33.4
ЮЗ 2 12 км мгла {туман} 9/4 600 м
[Cu med, cong Ac trans]
+26.1 +22.7 82 +35 +35 очень
душно
1011.7 994.4
З 1 12 км мгла {туман} 9/4 600 м
[Sc diur, vesp Ac trans]
+26.0 +22.6 82 +34 +34 очень
душно
1010.3 993.1
З 1 15 км мгла {туман} 5/1 600 м
[Cu hum Cs]
+25.0 +22.7 87 +33 +33 очень
душно
1009.8 992.5
Ю 1 8000 м мгла {туман} 5/1 600 м
[Cu hum Cs]
+27.6 +22.4 73 +36 +40 очень
душно
1011.5 994.1 +24.8
Ю 3 8000 м мгла {туман} 6/4 600 м
[Cu med, cong Cs]
+31.2 +23.1 62 +41 +49 опасность
перегрева
1011.3 994.0
Ю 4 7000 м мгла {туман} 9/6 450 м
[Cb cap Cs]
+29.6 +21.9 63 +38 +41 очень
душно
1008.1 990.8
Ю 2 10 км мгла {туман} 8/4 600 м
[Cu med, cong Cs]
+30.0 +23.4 68 +41 +41 опасность
перегрева
1008.0 990.7
С 4 10 км мгла {туман} 8/4 600 м
[Cu med, cong Ac As]
+27.2 +22.7 76 +36 +36 очень
душно
1010.4 993.0 +31.7
С 2 10 км гроза без осадков {туман} 9/5 450 м
[Cb cap Ac As]
+25.9 +22.8 83 +34 +34 очень
душно
1010.9 993.6
З 2 10 км мгла {гроза, туман} 8/4 600 м
[Cu med, cong Cs]
+25.6 +23.2 87 +34 +34 очень
душно
1009.3 992.0
Ю 1 12 км мгла {туман} 6/3 600 м
[Cu hum Cs]
+24.8 +22.8 89 +33 +33 очень
душно
1009.1 991.8
Ю 2 8000 м мгла {туман} 8/4 600 м
[Cu hum Cs]
+27.2 +23.6 81 +37 +39 очень
душно
1011.4 994.0 +24.5
С 1 8000 м мгла {туман} 9/5 600 м
[Cu med, cong Cs]
+30.3 +23.3 66 +41 +49 опасность
перегрева
1010.3 993.0
СВ 3 8000 м мгла {туман} 9/5 600 м
[Cu med, cong Ac As]
+31.6 +23.0 60 +42 +44 опасность
перегрева
1007.7 990.5
З 2 8000 м мгла {туман} 9/4 600 м
[Sc diur, vesp Cs]
+26.6 +22.5 78 +35 +35 очень
душно
1007.9 990.7 2
Ю 2 7000 м мгла {туман} 9/4 600 м
[Sc diur, vesp Cs]
+26.0 +22.4 81 +34 +34 очень
душно
1010.2 992.8 +33.0 2
З 2 5000 м мгла {туман} 9/3 600 м
[Sc diur, vesp Cs]
+25.2 +22.5 85 +33 +33 очень
душно
1011.2 993.8
Ю 1 12 км мгла {туман} 9/3 600 м
[Sc diur, vesp Cs]
+25.0 +22.5 86 +33 +33 очень
душно
1009.9 992.6
С 1 10 км мгла {туман} 9/4 600 м
[Sc diur, vesp Ac As]
+25.4 +22.7 85 +33 +33 очень
душно
1010.3 993.0
С 2 10 км мгла {туман} 8/5 600 м
[Sc diur, vesp Cs]
+26.2 +22.9 82 +35 +37 очень
душно
1012.3 995.0 +20.5 2
СВ 3 15 км мгла {туман} 6/4 600 м
[Cu hum Cs]
+29.6 +21.3 61 +37 +45 очень
душно
1012.3 995.0
С 2 15 км мгла {туман} 8/4 600 м
[Cu med, cong Cs]
+32.5 +23.4 59 +43 +50 опасность
перегрева
1010.3 993.0
В 1 15 км мгла {туман} 8/1 600 м
[Cu hum Cs]
+31.0 +23.2 63 +41 +42 опасность
перегрева
1009.7 992.4
В 1 15 км мгла {туман} 8/3 600 м
[Sc diur, vesp Cs]
+28.5 +20.2 61 +35 +35 очень
душно
1011.9 994.5 +32.5
СЗ 1 15 км мгла {туман} 6/3 600 м
[Cu med, cong Cs]
+26.8 +22.7 78 +35 +35 очень
душно
1012.3 995.0
З 1 15 км мгла {туман} 4/1 600 м
[Cu hum Cs]
+25.2 +21.3 79 +32 +32 очень
душно
1011.8 994.5
З 1 15 км мгла {туман} 5/1 600 м
[Cu hum Ac As]
+24.8 +20.9 79 +31 +31 очень
душно
1011.6 994.2
Местоположение метеостанции База ВВС Clark (Филиппины): широта 15.17 долгота 120.56 высота над уровнем моря 155 м.
В архиве по умолчанию представлена погода на Базе ВВС Clark за последнюю неделю. Архивные данные за месяц целиком и за предыдущие месяцы, начиная с января 2011 года, Вы можете получить, выбрав интересующий диапазон дат из раскрывающегося списка и нажав кнопку "Найти!".
*Определитесь, кто Вы:
Внимание! Время в таблицах - всемирное. Для получения местного времени необходимо прибавить поправку, которая равна 8 ч.
Смотрите также архив погоды в соседних городах и на ближайших метеорологических станциях:
Партнеры нашего сайта:      
Пояснения к столбцам:
  • Ветер - указаны скорость ветра в м/с - средняя за 10 мин, порывы в срок и между сроками (в фигурных скобках) и направление, откуда дует ветер: С - северный,
  • СВ - северо-восточный, В - восточный, ЮВ - юго-восточный, Ю - южный, ЮЗ - юго-западный, З - западный, СЗ - северо-западный.
  • Видимость - горизонтальная дальность видимости в метрах или километрах. При видимости от 1 до 10 км при отсутствии осадков обычно наблюдается дымка, при ухудшении видимости до 1 км и менее - туман. В сухую погоду видимость может ухудшаться дымом, пылью или мглою.
  • Явления - указаны атмосферные явления, наблюдавшиеся в срок или в последний час перед сроком; фигурными скобками обозначены явления, наблюдавшиеся между сроками (за 1-3 часа до срока); квадратными скобками обозначены град или гололедные отложения с указанием их диаметра в мм.
  • Облачность - указаны через наклонную черту общая и нижняя облачность в баллах и высота нижней границы облаков в метрах; квадратными скобками обозначены формы облаков: Ci - перистые, Cs - перисто-слоистые, Cc - перисто-кучевые, Ac - высококучевые, As - высокослоистые, Sc - слоисто-кучевые, Ns - слоисто-дождевые, Cu - кучевые, Cb - кучево-дождевые. Подробнее классификацию облаков см. в Атласе облаков (PDF).
  • T - Температура воздуха - температура, измеренная на высоте 2 м над землей.
  • Td - Температура точки росы - температура, при понижении до которой содержащийся в воздухе водяной пар достигнет насыщения.
  • f - Относительная влажность воздуха - влажноcть воздуха, измеренная на высоте 2 м над землей.
  • Te - Эффективная температура - температура, которую ощущает одетый по сезону человек в тени. Характеристика душности погоды. При расчете учитывается влияние влажности воздуха и скорости ветра на теплоощущения человека.
  • Tes - Эффективная температура на солнце - температура, которую ощущает человек, с поправкой на солнечный нагрев. Характеристика знойности погоды. Зависит от высоты солнца над горизонтом, облачности и скорости ветра. Ночью, в пасмурную погоду, а также при ветре 12 м/с и более поправка равна нулю.
  • P - Атмосферное давление - приведенное к уровню моря атмосферное давление.
  • Po - Атмосферное давление - измеренное на уровне метеостанции атмосферное давление.
  • Tmin - Минимальная температура - минимум температуры воздуха на высоте 2 м над землей.
  • Tmax - Максимальная температура - максимум температуры воздуха на высоте 2 м над землей.
  • R - Количество осадков - Количество выпавших осадков за период времени, мм. При наведении курсора мыши на число - период времени, за который выпало указанное количество осадков.
  • R24 - Количество осадков - Количество выпавших осадков за 24 часа, мм.
  • S - Снежный покров - Высота снежного покрова, см. При наведении курсора мыши на число - состояние снежного покрова и степень покрытия местности в баллах.